Flag for U.S.A. Weather past 2 weeks in Madison, Wisconsin, U.S.A.

Now
42 °F

Clear.


Feels Like: 42 °F
Forecast: 42 / 71 °F
Wind: No wind

Location: Dane County Regional-Truax Field

Current Time: May 22, 2015 at 4:33:55 AM

Latest Report: May 22, 2015 at 3:53 AM


Visibility: 10 mi

Pressure: 30.11 "Hg

Humidity: 76%

Dew point: 35 °F

Location of MadisonLocation

Historic Weather in Madison — Graph

°F

Madison temperature yesterday

Maximum temperature yesterday: 71 °F (at 4:53 PM)
Minimum temperature yesterday: 42 °F (at 4:53 AM)
Average temperature yesterday: 57 °F

Past Weeks' High & Low Weather Summary

 TemperatureHumidityPressure
High82 °F (May 7, 3:53 PM)97% (May 10, 10:53 PM)30.50 "Hg (May 10, 10:53 PM)
Low35 °F (May 13, 4:53 AM)26% (May 21, 4:53 PM)29.71 "Hg (May 11, 2:53 PM)
Average58 °F68%30.04 "Hg
* Reported May 7 2:53 AM — May 22 2:53 AM, Madison, Weather by CustomWeather, © 2015

Note: Actual official high and low records may vary slightly from our data, if they occured in-between our weather recording intervals... More about our weather records

Advertising

Madison weather history for previous 24 hours

 ConditionsComfort  
Time TempWeatherWind HumidityBarometerVisibility
2:53 AM
Fri, May 22
48 °FClear.5 mph56%30.09 "Hg10 mi
1:53 AM48 °FClear.5 mph63%30.07 "Hg10 mi
12:53 AM52 °FClear.9 mph66%30.05 "Hg10 mi
11:53 PM
Thu, May 21
56 °FClear.9 mph51%30.03 "Hg10 mi
10:53 PM60 °FPassing clouds.6 mph53%30.01 "Hg10 mi
9:53 PM64 °FPassing clouds.5 mph45%29.99 "Hg10 mi
8:53 PM64 °FBroken clouds.3 mph49%29.97 "Hg10 mi
7:53 PM66 °FPassing clouds.6 mph43%29.96 "Hg10 mi
6:53 PM69 °FPassing clouds.5 mph32%29.95 "Hg10 mi
5:53 PM71 °FScattered clouds.10 mph27%29.96 "Hg10 mi
4:53 PM71 °FScattered clouds.6 mph26%29.98 "Hg10 mi
3:53 PM70 °FPassing clouds.7 mph29%29.98 "Hg10 mi
2:53 PM69 °FPassing clouds.8 mph29%30.00 "Hg10 mi
1:53 PM69 °FPassing clouds.9 mph32%30.01 "Hg10 mi
12:53 PM66 °FPassing clouds.8 mph33%30.02 "Hg10 mi
11:53 AM64 °FSunny.8 mph41%30.03 "Hg10 mi
10:53 AM58 °FPassing clouds.6 mph50%30.05 "Hg10 mi
9:53 AM54 °FPassing clouds.8 mph62%30.07 "Hg10 mi
8:53 AM51 °FPartly sunny.3 mph69%30.08 "Hg10 mi
7:53 AM47 °FPartly sunny.9 mph77%30.10 "Hg10 mi
6:53 AM44 °FPartly sunny.6 mph82%30.10 "Hg10 mi
5:53 AM42 °FPassing clouds.3 mph85%30.10 "Hg10 mi
4:53 AM42 °FClear.6 mph89%30.10 "Hg10 mi
Weather by CustomWeather, © 2015

See weather overviewHow to use our weather pages